Flag for Mozambique Weather past 2 weeks in Beira, Mozambique

Now
75 °F

Partly cloudy.


Feels Like: 76 °F
Forecast: 71 / 78 °F
Wind: 10 mph from East

Location: Beira Airport

Current Time: Sep 21, 2014 at 8:34:57 PM

Latest Report: Sep 21, 2014 at 8:00 PM


Visibility: N/A

Pressure: 30.15 "Hg

Humidity: 78%

Dew point: 68 °F

Location of BeiraLocation

Historic Weather in Beira — Graph

°F

Beira temperature yesterday

Maximum temperature yesterday: 82 °F (at 12:00 PM)
Minimum temperature yesterday: 68 °F (at 6:00 AM)
Average temperature yesterday: 77 °F

Past Weeks' High & Low Weather Summary

 TemperatureHumidityPressure
High88 °F (Sep 19, 12:00 PM)100% (Sep 7, 3:00 AM)30.21 "Hg (Sep 7, 3:00 AM)
Low66 °F (Sep 7, 5:00 AM)55% (Sep 19, 1:00 PM)29.77 "Hg (Sep 19, 12:00 PM)
Average75 °F83%30.04 "Hg
* Reported Sep 6 7:00 PM — Sep 21 7:00 PM, Beira, Weather by CustomWeather, © 2014

Note: Actual official high and low records may vary slightly from our data, if they occured in-between our weather recording intervals... More about our weather records

Advertising

Beira weather history for previous 24 hours

 ConditionsComfort  
Time TempWeatherWind HumidityBarometerVisibility
7:00 PM
Sep 21
73 °FPartly cloudy.12 mph83%30.12 "HgN/A
6:00 PM73 °FPassing clouds.14 mph83%30.12 "HgN/A
5:00 PM75 °FBroken clouds.14 mph83%30.12 "HgN/A
3:00 PM73 °FCloudy.7 mph94%30.09 "HgN/A
2:00 PM72 °FThunderstorms. Cloudy.10 mph94%30.12 "Hg1 mi
1:00 PM77 °FMostly cloudy.16 mph74%30.12 "HgN/A
12:00 PM75 °FCloudy.10 mph78%30.15 "HgN/A
10:00 AM73 °FMore clouds than sun.9 mph83%30.18 "HgN/A
9:00 AM73 °FDrizzle. More clouds than sun.7 mph83%30.18 "HgN/A
7:00 AM68 °FScattered clouds.7 mph100%30.15 "HgN/A
6:00 AM68 °FScattered clouds.6 mph100%30.12 "HgN/A
4:00 AM72 °FPassing clouds.6 mph83%30.09 "HgN/A
3:00 AM73 °FPassing clouds.8 mph78%30.12 "HgN/A
2:00 AM73 °FPassing clouds.10 mph78%30.12 "HgN/A
1:00 AM75 °FPassing clouds.9 mph69%30.12 "HgN/A
10:00 PM
Sep 20
75 °FPassing clouds.10 mph89%30.15 "HgN/A
9:00 PM75 °FPassing clouds.14 mph89%30.15 "HgN/A
Weather by CustomWeather, © 2014

See weather overviewHow to use our weather pages